Preview of NWS' New Version of Forecast
This preview is not operational and should not be used for support decisions.

Regional Weather Roundup (RWR)

Issued by National Weather Service (NWS)

                            
000
ASUS46 KPQR 172210
RWROR 

OREGON REGIONAL WEATHER ROUNDUP
NATIONAL WEATHER SERVICE PORTLAND OR
300 PM PDT SAT AUG 17 2019

NOTE: "FAIR" INDICATES FEW OR NO CLOUDS BELOW 12,000 FEET WITH
NO SIGNIFICANT WEATHER AND/OR OBSTRUCTIONS TO VISIBILITY.

ORZ001>013-172300-
NORTHWEST OREGON

  
CITY           SKY/WX    TMP DP  RH WIND       PRES   REMARKS
ASTORIA        MOSUNNY   67  57  70 W12       30.01F                  
TILLAMOOK      CLOUDY    70  55  60 NW12      30.02F                  
PORTLAND       CLOUDY    70  54  56 E5        30.00F                  
VANCOUVER WA   CLOUDY    68  54  60 VRB3      30.00F                  
SCAPPOOSE      CLOUDY    69  55  60 E3        29.99F                  
HILLSBORO      CLOUDY    70  53  54 CALM      29.99F                  
AURORA         CLOUDY    70  52  52 CALM      30.01F                  
MCMINNVILLE    CLOUDY    73  53  49 N5        29.99F                  
SALEM          PTSUNNY   73  51  46 VRB7      29.98F                  
CORVALLIS      CLOUDY    76  53  44 VRB3      29.97F                  
EUGENE         MOSUNNY   79  51  37 NE12      29.97F                  
$$

ORZ021-028-172300-
SOUTHWEST OREGON

  
CITY           SKY/WX    TMP DP  RH WIND       PRES   REMARKS
NORTH BEND     SUNNY     69  59  70 N22       30.00F                  
BROOKINGS      SUNNY     82  56  40 NW17G23   29.82F                  
ROSEBURG       SUNNY     82  52  35 VRB5      29.92F                  
SEXTON SUMMIT  SUNNY     74  49  41 VRB3      30.02F                  
GRANTS PASS    FAIR      86  46  25 NW13      29.91F                  
MEDFORD        SUNNY     85  43  22 VRB3      29.87F                  
$$

ORZ014>016-041-172300-
COLUMBIA GORGE

  
CITY           SKY/WX    TMP DP  RH WIND       PRES   REMARKS
TROUTDALE      CLOUDY    71  54  54 VRB5      30.00F                  
HOOD RIVER     MOSUNNY   73  52  46 W9        29.93F                  
THE DALLES     SUNNY     78  53  41 NW16G29   29.88F                  
$$

ORZ029>031-041-044-049-050-061>064-502-503-505>511-172300-
EASTERN OREGON

  
CITY           SKY/WX    TMP DP  RH WIND       PRES   REMARKS
MADRAS         SUNNY     77  46  33 NW7       29.95F                  
REDMOND        SUNNY     83  39  21 NW9       29.93F                  
BEND           SUNNY     81  37  21 VRB6      29.94F                  
PRINEVILLE     SUNNY     77  37  24 VRB7      29.94F                  
KLAMATH FALLS  SUNNY     82  37  20 VRB6      29.96F                  
LAKEVIEW       SUNNY     83  37  19 S8G16     29.99F                  
HERMISTON      SUNNY     83  49  30 W7        29.85F                  
PENDLETON      SUNNY     81  47  30 CALM      29.88F                  
JOHN DAY       SUNNY     80  39  23 SW5       29.95F                  
MEACHAM        SUNNY     73  45  36 VRB3      29.97F                  
LA GRANDE      SUNNY     80  43  26 NW8       29.90F                  
BAKER CITY     SUNNY     81  43  26 NW8       29.92F                  
BURNS          SUNNY     84  35  17 W7        29.95F                  
ROME             N/A     87  26  11 NW7       29.91F                  
ONTARIO        SUNNY     90  41  18 VRB7      29.84F                  
$$